Location: Unspecified
(0.0000°N, 0.0000°E)
Time: 01:16:23
(UTC+01:00)

ATLAS V CENTAUR R/B - Visible Passes

Search period start: 25 February 2017 00:00
Search period end: 07 March 2017 00:00
Orbit: 237 x 28043 km, 18.0° (Epoch: 24 February)

Date Brightness Start Highest point End Pass type
(mag) Time Alt. Az. Time Alt. Az. Time Alt. Az.
25 Feb 8.4 17:26:34 10° SW 23:35:08 39° ENE 00:34:45 10° ENE visible
26 Feb 8.7 17:49:37 10° SW 23:57:34 46° ENE 01:01:41 10° ENE visible
27 Feb 8.5 18:12:22 10° SW 18:31:44 61° SSE 01:27:23 10° ENE visible
28 Feb 8.8 18:34:50 10° WSW 18:58:33 66° SSE 01:52:05 10° ENE visible
01 Mar 9.1 18:57:03 10° WSW 19:26:29 70° SSE 02:15:56 10° ENE visible
02 Mar 9.0 19:19:00 10° WSW 19:56:27 75° SSE 02:39:04 10° ENE visible
03 Mar 8.9 19:40:43 10° WSW 20:30:07 80° SE 03:01:34 10° ENE visible
04 Mar 8.8 20:02:13 10° WSW 21:10:55 86° SE 03:23:28 10° ENE visible
05 Mar 8.7 20:23:30 10° WSW 21:53:55 88° WNW 03:44:48 10° ENE visible
